Location: M�nchen
(48.1404°N, 11.6043°E)
Time: 06:28:47
(UTC+01:00)

ISS - Pass Details

Date: 12 November 2017
Orbit: 402 x 407 km, 51.6° (Epoch: 24 November)

Event Time Altitude Azimuth Distance (km) Brightness Sun altitude
Exits shadow 04:19:50 15° 71° (ENE) 1,211 -0.7 -29.3°
Drops below altitude 10° 04:20:26 10° 75° (ENE) 1,439 -0.1 -29.2°
Sets 04:22:37 0° 82° (E) 2,316 1.3 -28.9°
